Dewpoint
63 62 62 62 61 62 62 62 62 62 62 62 62 62 62 62 62 62 62 62 62 62 62 62 61 61 62 62 62 63 63 63 64 64 63 63 63 63 63 63 63 63 63 63 63 63 63 63 63 63 63 63 62 62 62 62 62 62 62 62 62 62 62 62 62 62 62 62 62
63 63 62 61 61 61 62 62 62 62 62 63 62 62 62 62 62 62 62 62 62 62 62 62 62 62 62 62 63 63 63 63 63 64 64 64 63 63 63 63 63 63 63 63 63 63 63 63 63 63 63 62 62 62 62 62 62 62 61 61 62 62 62 61 61 61 61 62 62
61 62 63 63 62 61 61 61 61 61 61 61 62 62 62 62 62 62 62 62 62 62 62 62 62 62 62 62 63 63 63 63 63 63 64 64 64 63 63 63 63 63 63 63 63 63 63 63 63 62 62 62 62 62 62 62 62 61 61 61 61 61 61 61 61 61 61 62 62
61 61 62 62 62 61 61 61 60 60 61 61 61 61 62 62 62 62 62 62 62 62 62 62 62 62 62 62 62 62 62 62 63 63 63 63 63 63 63 63 63 63 63 63 63 63 63 63 63 62 62 62 62 62 62 62 62 61 61 61 61 61 61 61 61 61 61 61 61
61 62 62 62 62 61 61 61 61 61 61 61 61 61 61 62 61 61 61 61 61 61 61 62 62 62 62 62 62 62 62 62 62 62 63 63 63 63 63 63 63 63 63 63 63 63 63 63 63 62 62 62 62 62 62 62 62 61 61 61 61 61 60 60 60 59 59 59 59
61 62 62 62 62 62 62 62 62 62 62 62 62 61 61 61 61 61 61 60 61 61 61 61 62 62 62 62 62 62 62 62 62 62 62 62 63 63 63 63 63 62 63 63 63 63 63 63 62 62 62 62 62 62 62 61 61 61 61 61 60 60 60 59 59 59 59 59 59
62 62 62 61 61 61 61 61 62 62 62 62 62 62 61 61 61 61 60 60 60 60 61 61 61 61 61 61 62 62 61 61 61 61 61 61 62 62 62 62 61 61 61 61 62 62 62 62 62 61 61 61 61 61 61 61 61 61 60 60 60 59 59 59 59 59 59 58 58
61 61 61 61 61 61 61 61 61 61 61 61 61 61 61 61 61 61 60 60 60 60 60 61 61 61 61 61 61 60 60 60 59 59 59 60 60 60 60 60 60 60 60 60 61 61 61 61 60 60 59 59 60 60 61 61 61 60 60 59 59 59 59 59 59 58 58 58 57
60 61 61 61 61 61 61 60 60 60 60 60 60 60 61 61 61 61 61 60 60 60 60 60 60 60 60 60 60 60 60 60 59 59 59 59 59 59 59 60 59 59 59 60 60 60 60 60 59 59 59 58 58 59 59 60 60 60 59 59 58 58 58 58 57 57 58 58 57
59 59 60 60 61 60 60 60 60 60 60 60 60 60 60 60 61 61 61 61 60 60 60 59 59 60 60 60 60 60 60 60 59 59 59 59 59 59 59 59 59 59 59 59 60 60 60 59 59 59 59 59 58 59 59 59 59 59 59 58 58 57 57 57 56 56 57 57 57
57 58 59 60 60 60 60 60 60 60 60 60 60 60 60 60 61 61 61 60 60 60 59 59 59 59 59 60 59 59 59 60 60 59 59 59 59 59 59 59 59 59 59 59 59 59 59 59 59 59 59 59 59 58 58 59 59 59 58 57 57 57 57 56 56 56 56 56 56
55 56 58 59 59 60 60 60 59 59 59 59 60 60 60 60 61 60 60 60 60 59 59 59 59 59 59 59 59 59 59 60 60 59 59 59 59 59 59 59 59 59 59 59 59 59 59 59 59 59 59 59 59 58 58 58 58 58 57 57 57 56 56 56 56 56 56 56 56
52 54 55 56 58 59 59 59 59 59 59 59 59 59 59 60 60 60 59 59 59 59 59 59 59 59 59 59 60 60 60 59 59 59 59 59 59 59 59 59 59 59 59 59 59 59 59 59 59 59 59 59 59 58 58 58 58 58 57 56 56 56 56 55 56 56 56 56 56
50 51 53 54 55 57 59 59 59 59 59 59 59 59 59 59 59 59 59 59 59 59 59 59 59 59 59 59 59 59 59 59 59 59 59 59 59 59 59 59 59 59 59 59 59 59 59 59 59 59 59 59 58 58 57 57 57 57 57 56 55 55 55 55 55 55 55 55 55
48 49 50 52 54 55 56 57 59 59 59 59 59 59 59 59 59 59 59 59 59 59 59 59 59 59 59 59 59 59 59 59 59 59 59 59 59 59 59 59 59 59 59 59 59 59 59 59 59 59 59 58 58 57 57 57 57 57 56 56 55 55 55 54 54 55 55 55 55
46 47 49 50 52 53 54 55 58 59 59 59 59 59 59 59 59 59 59 59 59 59 59 59 59 59 59 59 59 58 58 58 59 59 59 59 59 59 59 59 59 59 59 59 59 59 59 59 59 59 59 58 57 57 57 57 57 57 56 55 55 55 54 54 54 54 54 54 54
46 46 47 48 49 50 51 53 56 58 59 59 58 59 59 59 59 59 59 59 59 59 59 59 59 59 58 58 58 58 58 58 58 58 58 58 58 59 59 59 59 59 59 58 59 59 59 59 59 59 58 58 57 57 56 56 57 56 56 55 55 55 54 54 54 54 54 54 54
45 45 45 46 47 48 49 51 53 55 57 58 59 59 59 59 59 59 59 59 59 59 59 59 59 58 58 58 58 58 58 58 58 58 58 58 58 58 58 58 58 58 58 58 58 58 58 58 58 58 58 58 57 57 56 56 56 56 56 55 55 55 54 54 54 54 54 54 54
45 45 45 45 45 46 47 48 50 53 55 57 58 58 59 59 59 59 59 59 59 59 59 59 59 58 58 58 58 58 58 58 58 58 58 58 58 58 58 58 58 58 58 58 58 58 57 57 57 58 58 58 57 57 56 56 56 56 56 55 55 55 54 54 54 54 54 54 54
45 45 45 45 45 45 46 47 48 50 52 54 57 58 59 59 59 59 59 59 59 59 59 59 59 59 58 58 58 58 58 58 58 58 58 58 58 58 58 57 57 57 57 57 57 57 56 56 56 57 57 57 56 56 56 56 55 55 55 55 54 54 54 54 54 54 54 54 54
44 45 45 45 45 45 46 46 47 48 49 50 52 55 57 58 59 59 59 59 59 59 59 59 59 59 58 58 58 58 58 58 58 58 58 58 57 57 57 57 57 56 56 56 56 56 56 56 56 56 56 55 55 55 55 55 54 54 54 54 54 54 54 54 53 53 53 53 53
44 44 45 45 45 46 46 47 47 48 48 48 49 51 53 55 56 57 58 58 59 59 59 59 59 59 58 58 58 58 58 58 58 58 58 57 57 57 56 56 56 55 55 55 55 55 55 55 55 55 55 55 54 54 54 54 54 53 53 53 52 53 53 52 52 52 52 52 52
43 44 44 45 45 46 46 47 47 48 48 48 49 50 51 53 54 54 54 55 55 56 57 58 59 59 59 58 58 58 58 57 57 57 57 57 57 56 56 55 55 55 55 55 55 55 55 54 54 54 54 54 54 54 54 54 53 52 52 51 51 51 51 51 51 51 51 51 51
43 44 44 45 45 46 46 46 47 47 48 48 48 49 49 50 51 52 53 53 54 54 54 55 56 57 58 59 59 58 58 58 57 57 56 56 56 56 55 55 55 55 55 55 54 54 54 54 54 54 54 54 54 54 53 53 53 52 51 51 50 50 50 50 50 50 51 51 51
44 44 44 44 45 45 46 46 46 47 47 48 48 48 48 49 49 50 51 51 52 53 54 54 55 55 56 57 58 58 58 58 57 57 56 56 56 56 55 55 55 55 55 54 53 53 53 54 54 54 54 54 54 53 53 53 53 52 51 51 50 50 50 50 50 50 50 50 50
44 44 43 44 44 45 45 45 46 46 47 47 47 48 48 48 48 49 49 50 50 51 52 53 54 54 54 55 56 57 57 57 57 57 57 56 56 56 55 55 55 55 54 54 53 53 53 54 54 54 54 54 53 53 52 52 52 52 51 51 50 50 50 49 49 49 49 49 49
44 44 44 43 43 44 44 45 45 46 46 46 46 47 47 47 47 48 48 49 49 50 50 51 51 52 53 54 54 55 56 56 57 57 56 56 56 56 55 55 55 54 54 53 52 53 53 54 53 53 53 53 53 52 52 52 51 51 51 50 50 50 49 48 48 48 48 48 47
44 44 44 44 43 43 44 44 45 45 46 46 46 45 45 46 46 46 47 47 48 49 50 50 49 50 50 51 52 54 54 55 56 56 56 56 56 55 55 55 54 54 53 52 52 53 53 53 53 53 52 52 52 52 51 51 51 50 50 50 50 49 48 47 47 47 46 46 45
44 44 44 44 44 43 43 44 44 45 45 45 45 45 45 45 45 45 46 46 48 49 50 50 49 49 49 50 50 51 51 53 53 54 54 54 55 55 54 54 54 53 53 52 52 52 53 53 53 53 52 52 52 52 51 51 50 50 49 49 48 48 47 46 46 46 46 45 45
43 43 44 44 44 44 43 43 44 44 45 45 45 45 45 45 45 45 46 46 47 49 50 50 49 49 48 49 49 49 50 50 50 50 51 52 53 53 54 53 53 53 52 52 52 52 52 52 52 52 52 51 51 51 50 50 49 48 48 48 47 46 46 46 45 45 45 45 45
42 43 43 43 43 43 43 43 44 44 44 45 45 45 45 45 45 45 46 46 47 48 49 49 49 48 48 48 48 49 49 49 49 49 50 50 51 52 52 52 52 51 51 51 52 52 52 52 52 51 51 50 50 49 48 48 47 47 47 47 46 45 45 45 45 45 45 45 45
42 42 42 42 42 43 43 43 44 44 44 45 45 45 45 45 45 46 46 46 47 47 48 48 48 47 47 47 48 48 48 48 48 49 49 50 50 50 50 50 50 50 50 50 51 51 51 51 51 51 50 50 49 47 46 45 45 45 45 45 45 45 45 45 45 45 45 45 44
41 41 41 41 41 42 42 43 44 44 44 44 45 45 45 45 45 46 46 46 47 47 47 48 48 47 47 47 47 47 48 48 48 48 49 49 49 49 49 49 49 49 49 50 50 51 51 51 50 50 50 49 47 45 44 44 44 44 45 44 44 44 44 44 44 44 44 44 44
41 41 41 41 41 41 42 43 43 44 44 44 44 45 45 45 45 45 46 46 47 47 47 47 47 47 47 47 47 47 47 48 48 48 48 49 49 49 49 49 48 49 49 50 50 50 50 50 50 50 49 48 45 44 44 44 43 44 44 43 43 43 43 43 43 43 43 43 43
40 40 40 40 41 41 42 43 43 43 43 44 44 44 45 45 45 45 46 46 46 46 46 46 46 47 47 48 48 48 47 47 47 48 48 48 48 48 48 48 48 48 49 49 50 50 50 50 50 49 48 47 45 44 44 44 44 43 43 43 42 42 42 42 42 42 42 42 42
39 39 39 39 40 41 41 42 42 42 43 43 43 44 44 44 45 45 46 46 46 46 45 45 45 45 46 47 47 48 48 47 47 47 48 48 48 48 47 47 47 47 48 49 50 50 50 49 49 48 47 45 45 44 44 44 44 43 43 43 42 42 42 42 42 41 41 41 41
38 38 39 39 39 40 40 41 41 41 42 42 43 43 44 44 45 45 45 45 45 45 45 45 45 45 45 45 46 46 47 47 47 47 47 48 47 47 46 45 45 46 48 49 49 49 49 49 48 47 46 45 44 44 44 43 43 43 42 42 42 42 42 41 41 41 40 40 40
38 38 38 39 39 39 39 40 41 41 41 42 43 43 44 44 45 45 45 45 45 45 44 44 44 44 44 45 45 45 45 46 47 47 47 47 47 46 45 44 45 45 47 48 49 49 48 48 48 47 46 45 44 44 43 43 43 42 42 42 42 42 41 41 41 41 40 39 40
38 38 38 38 39 39 39 40 40 41 41 42 43 43 44 44 44 44 45 45 45 45 44 44 44 43 44 44 44 44 44 45 46 47 47 47 46 46 45 44 44 45 46 47 48 48 48 48 47 46 45 45 44 43 43 43 42 42 42 42 41 41 41 41 41 40 39 39 40
38 38 38 38 38 38 39 39 40 41 41 42 42 43 43 43 44 44 45 45 45 44 44 43 43 43 43 44 44 43 43 43 44 45 46 46 46 45 45 44 43 44 45 47 47 47 47 47 47 46 45 44 44 43 43 42 42 41 41 41 41 41 41 41 40 40 39 38 39
37 37 38 38 38 38 38 38 39 40 40 41 42 42 43 43 44 44 44 45 44 44 44 44 43 43 43 44 44 44 43 43 43 44 45 45 45 45 45 44 43 43 45 46 46 47 47 47 47 46 45 44 43 43 43 42 41 41 41 41 41 41 40 40 39 39 38 37 37